Flag for France Weather past 2 weeks in Strasbourg, France

Now
50 °F

Clear.


Feels Like: 50 °F
Forecast: 49 / 64 °F
Wind: 2 mph from Southwest

Location: Strasbourg Airport

Current Time: Aug 22, 2014 at 2:53:29 AM

Latest Report: Aug 22, 2014 at 2:00 AM


Visibility: N/A

Pressure: 30.04 "Hg

Humidity: 88%

Dew point: 46 °F

Location of StrasbourgLocation

Historic Weather in Strasbourg — Graph

°F

Strasbourg temperature yesterday

Maximum temperature yesterday: 70 °F (at 2:30 PM)
Minimum temperature yesterday: 46 °F (at 7:00 AM)
Average temperature yesterday: 59 °F

Past Weeks' High & Low Weather Summary

 TemperatureHumidityPressure
High84 °F (Aug 10, 5:00 PM)100% (Aug 8, 5:30 AM)30.18 "Hg (Aug 8, 5:30 AM)
Low46 °F (Aug 20, 5:30 AM)34% (Aug 11, 6:00 PM)29.65 "Hg (Aug 13, 1:30 PM)
Average64 °F74%29.95 "Hg
* Reported Aug 7 1:00 AM — Aug 22 1:30 AM, Strasbourg, Weather by CustomWeather, © 2014

Note: Actual official high and low records may vary slightly from our data, if they occured in-between our weather recording intervals... More about our weather records

Advertising

Strasbourg weather history for previous 24 hours

 ConditionsComfort  
Time TempWeatherWind HumidityBarometerVisibility
1:30 AM
Aug 22
50 °FClear.2 mph88%30.04 "HgN/A
1:00 AM52 °FClear.2 mph82%30.04 "HgN/A
12:30 AM54 °FClear.3 mph82%30.04 "HgN/A
12:00 AM55 °FClear.5 mph77%30.04 "HgN/A
11:30 PM
Aug 21
57 °FPartly cloudy.2 mph77%30.04 "HgN/A
11:00 PM57 °FMostly cloudy.2 mph82%30.04 "HgN/A
10:30 PM59 °FPassing clouds.3 mph72%30.04 "HgN/A
10:00 PM59 °FPassing clouds.3 mph77%30.04 "HgN/A
9:30 PM59 °FPartly sunny.No wind77%30.04 "HgN/A
9:00 PM59 °FLight rain. Clear.2 mph72%30.04 "HgN/A
8:30 PM63 °FClear.3 mph64%30.01 "HgN/A
8:00 PM64 °FClear.3 mph52%30.01 "HgN/A
7:30 PM66 °FClear.2 mph52%30.01 "HgN/A
7:00 PM68 °FClear.2 mph46%30.01 "HgN/A
6:30 PM68 °FClear.5 mph46%30.01 "HgN/A
6:00 PM70 °FScattered clouds.3 mph43%30.01 "HgN/A
5:30 PM68 °FClear.3 mph49%30.04 "HgN/A
5:00 PM68 °FBroken clouds.3 mph49%30.04 "HgN/A
4:30 PM68 °FClear.3 mph46%30.04 "HgN/A
4:00 PM68 °FBroken clouds.6 mph49%30.04 "HgN/A
3:30 PM66 °FBroken clouds.6 mph52%30.04 "HgN/A
3:00 PM68 °FBroken clouds.6 mph53%30.07 "HgN/A
2:30 PM70 °FBroken clouds.2 mph46%30.07 "HgN/A
2:00 PM68 °FPassing clouds.2 mph46%30.07 "HgN/A
1:30 PM66 °FClear.2 mph49%30.07 "HgN/A
1:00 PM66 °FScattered clouds.3 mph56%30.07 "HgN/A
12:30 PM64 °FPartly sunny.7 mph56%30.07 "HgN/A
12:00 PM64 °FBroken clouds.5 mph56%30.07 "HgN/A
11:30 AM63 °FBroken clouds.2 mph64%30.09 "HgN/A
11:00 AM63 °FScattered clouds.2 mph64%30.09 "HgN/A
10:30 AM63 °FClear.1 mph68%30.09 "HgN/A
10:00 AM63 °FClear.2 mph64%30.09 "HgN/A
9:30 AM61 °FClear.1 mph72%30.09 "HgN/A
9:00 AM57 °FClear.No wind82%30.09 "HgN/A
8:30 AM57 °FClear.2 mph82%30.07 "HgN/A
8:00 AM52 °FClear.No wind94%30.07 "HgN/A
7:30 AM48 °FClear.3 mph94%30.07 "HgN/A
7:00 AM46 °FClear.3 mph100%30.07 "HgN/A
6:30 AM48 °FClear.2 mph94%30.07 "HgN/A
6:00 AM48 °FClear.2 mph94%30.07 "HgN/A
5:30 AM48 °FClear.No wind94%30.07 "HgN/A
5:00 AM48 °FClear.2 mph94%30.07 "HgN/A
4:30 AM48 °FClear.2 mph94%30.07 "HgN/A
4:00 AM50 °FClear.3 mph94%30.07 "HgN/A
3:30 AM50 °FClear.2 mph100%30.07 "HgN/A
3:00 AM50 °FClear.2 mph100%30.07 "HgN/A
2:30 AM50 °FPassing clouds.5 mph94%30.07 "HgN/A
2:00 AM52 °FClear.No wind88%30.07 "HgN/A
Weather by CustomWeather, © 2014

See weather overviewHow to use our weather pages